Location: *
(37.5289°N, 96.3919°W)
Time: 00:00:15
(UTC+00:00)

Daily predictions for brighter satellites

Satellite Brightness Start Highest point End
(mag) Time Altitude Azimuth Time Altitude Azimuth Time Altitude Azimuth
Cosmos 2237 Rocket 4.1 00:52:04 10° NNE 00:54:23 12° NE 00:56:43 10° ENE
FengYun 1-2 T 4.4 00:50:26 10° SSE 00:56:03 86° WSW 01:01:44 10° NNW
CSL-04 Rocket 3.7 00:50:40 10° SSE 00:56:08 82° ENE 01:01:41 10° NNW
Timation 2 Rocket 4.1 00:49:52 10° SSW 00:56:32 84° ESE 01:02:58 10° NNE
CSL-04 Debris 4.2 00:54:31 10° SSE 00:59:54 88° ENE 01:05:20 10° NNW
Cosmos 1939 Rocket 3.1 01:04:25 10° SE 01:08:05 43° ENE 01:11:46 10° N
Cosmos 405 3.5 01:05:00 10° NNW 01:08:27 64° W 01:11:53 10° S
Cosmos 2322 Rocket 4.4 01:08:24 10° NW 01:13:06 28° WSW 01:17:48 10° SSW
CZ-2D R/B 3.2 01:09:33 10° SSE 01:13:18 62° ENE 01:17:03 10° N
Lacrosse 5 rocket 2.7 01:13:55 10° SSE 01:16:01 15° ESE 01:16:35 15° ESE
COSMOS 2455 2.8 01:10:44 10° NNW 01:16:46 79° ENE 01:22:46 10° SSE
GPS 2-05 Rocket1 4.0 01:20:05 10° WSW 01:22:23 24° SSW 01:24:10 13° SSE
USA 186 3.3 01:23:25 18° E 01:24:25 21° ENE 01:27:03 10° NNE
Cosmos 2333 4.2 01:20:50 10° NNW 01:26:32 81° ENE 01:32:15 10° SSE
Okean 1 Rocket 2.9 01:23:48 10° S 01:28:05 68° E 01:32:25 10° NNE
MOS 1 4.5 01:24:20 10° SE 01:29:50 52° ENE 01:35:21 10° N
Cosmos 2074 Rocket 4.1 01:24:15 10° N 01:30:30 84° W 01:36:42 10° S
Aureole 1 Rocket 2.9 01:26:20 10° NNW 01:31:15 70° ENE 01:34:51 11° SSE
Cosmos 2219 Rocket 2.2 01:26:12 10° NNW 01:31:44 59° ENE 01:36:59 11° SE
Cosmos 1544 3.0 01:30:11 10° S 01:33:45 85° W 01:37:22 10° N
NOAA 11 4.2 01:29:01 10° SSE 01:34:31 90° E 01:40:03 10° NNW
Cosmos 1371 Rocket 4.4 01:30:25 10° S 01:35:21 41° ESE 01:40:21 10° NNE
ISS -3.3 01:32:27 10° SSW 01:35:34 40° SE 01:36:46 28° E
Resurs 01 Rocket 3.7 01:36:01 12° ENE 01:36:01 12° ENE 01:37:08 10° NE
Cosmos 1842 4.0 01:32:13 10° NNW 01:36:08 57° W 01:39:57 10° S
COSMOS 2428 2.7 01:31:02 10° NNW 01:36:42 67° ENE 01:42:04 11° SSE
SAR-Lupe-2 3.4 01:33:13 10° NNE 01:36:48 74° ESE 01:40:21 10° S
Cosmos 2322 4.1 01:32:47 10° NNW 01:38:29 65° WSW 01:44:06 10° S
Cosmos 2360 Rocket 3.9 01:38:40 10° NW 01:43:40 33° WSW 01:48:39 10° SSW
ASTEX 1 3.3 01:40:03 10° NNE 01:44:54 63° E 01:49:44 10° S
GP-B 3.5 01:40:36 10° N 01:45:00 67° W 01:49:24 10° SSW
Cosmos 405 Rocket 3.5 01:46:28 29° ENE 01:46:28 29° ENE 01:49:06 10° NNE
H-2A R/B 2.7 01:46:54 27° E 01:48:16 31° ENE 01:52:38 10° N
ADEOS Rocket 3.8 01:41:29 10° NNE 01:48:31 43° E 01:55:47 10° SSE
Cosmos 389 Rocket 3.4 01:48:55 10° NNE 01:51:22 29° NE 01:51:22 29° NE
Cosmos 1025 Rocket 4.2 01:49:09 10° NNW 01:53:12 42° W 01:57:13 10° SSW
Cosmos 2227 Rocket 2.5 01:48:22 10° S 01:53:37 42° ESE 01:58:56 10° NE
Cosmos 2154 Rocket 3.9 01:47:28 10° N 01:53:42 88° E 01:59:55 10° S
Cosmos 2219 3.1 01:48:18 10° SSW 01:54:01 77° ESE 01:59:47 10° NNE
Meteor 1-15 Rocket 4.2 01:51:56 10° S 01:57:36 65° E 02:03:22 10° NNE
ARGOS 3.6 01:58:35 32° ESE 02:00:09 40° ENE 02:05:09 10° N
ATLAS 2AS CENTAUR R/B 2.8 01:56:45 10° NNW 02:04:22 86° ENE 02:08:50 25° SSE
Cosmos 2297 Rocket 2.2 01:58:56 10° S 02:04:26 56° ESE 02:09:58 10° NNE
Cosmos 1892 Rocket 3.8 02:02:59 10° N 02:07:17 47° E 02:07:24 47° E
SL-8 Rocket 4.2 02:01:30 10° N 02:07:24 45° ENE 02:09:13 36° ESE
Meteor 2-17 Rocket 4.5 02:04:25 10° N 02:10:21 54° E 02:12:37 35° SE
Cosmos 1190 Rocket 4.3 02:05:25 10° N 02:10:30 45° ENE 02:11:13 43° E
DELTA 2 R/B (1) 3.5 02:05:59 10° WSW 02:11:35 74° SSE 02:13:27 43° E
SJ-11-01 4.4 02:09:13 18° S 02:12:44 78° WSW 02:17:31 10° NNW
GEOS 3 Rocket 3.7 02:09:59 27° SSE 02:12:45 72° WSW 02:17:52 10° NW
Meteor 1-4 Rocket 3.9 02:10:35 10° N 02:12:30 27° NNE 02:12:30 27° NNE
Okean 1-7 Rocket 3.5 02:09:54 10° N 02:14:18 60° E 02:14:32 58° E
Meteor 1-24 Rocket 4.4 02:23:34 10° N 02:28:15 38° ENE 02:28:15 38° ENE
Cosmos 2333 Rocket 3.3 02:24:36 10° NW 02:29:57 42° WSW 02:34:24 15° S
Cosmos 1707 4.0 02:27:19 10° NNW 02:31:00 40° W 02:32:38 26° SW
SJ-6B 3.4 02:30:22 44° SSW 02:31:18 56° W 02:35:22 10° NNW
Cosmos 2056 Rocket 3.9 02:28:53 10° SSW 02:34:16 66° WNW 02:39:40 10° NNE
NOSS 0 Rocket 4.1 02:30:35 10° NNW 02:36:45 72° WSW 02:39:05 40° S
In-Cosmos 22 4.1 02:32:09 10° NNW 02:37:32 80° W 02:39:03 49° S
CZ-2C R/B 3.4 02:39:18 52° NE 02:39:18 52° NE 02:43:54 10° N
Cosmos 2237 Rocket 2.0 02:33:35 10° NNW 02:39:20 84° ENE 02:39:55 72° SE
Cosmos 614 Rocket 3.8 02:34:10 10° NNW 02:39:25 89° WSW 02:39:41 81° S
Cosmos 407 Rocket 3.4 02:37:16 10° NNW 02:42:24 79° WSW 02:42:41 76° SSW
Cosmos 1455 Rocket 3.4 02:44:29 63° WNW 02:44:29 63° WNW 02:48:43 10° N
Meteor 2-5 Rocket 3.6 02:42:34 10° N 02:48:25 82° E 02:48:36 81° ESE
Cosmos 1980 3.7 02:42:51 10° NNW 02:48:30 76° WSW 02:49:03 69° SSW
Lacrosse 5 rocket 3.5 02:51:18 10° WSW 02:52:20 18° WSW 02:52:20 18° WSW
Meteor 1-22 Rocket 4.3 02:59:08 81° NNE 02:59:08 81° NNE 03:04:59 10° N
FALCON 9 R/B 4.3 02:18:06 10° W 03:06:21 75° SSW 03:11:05 51° SE
Cosmos 1140 Rocket 4.1 03:03:37 10° NNW 03:07:38 52° NW 03:07:38 52° NW
SL-16 R/B 3.2 03:03:57 10° NNW 03:07:40 38° N 03:07:40 38° N
Resurs 01 Rocket 3.4 03:13:36 29° NNW 03:13:36 29° NNW 03:15:53 10° NNW
NOSS 3-4 (A) 4.4 03:04:37 10° NW 03:11:37 53° WSW 03:13:29 44° SSW
NOSS 3-4 (C) 4.4 03:04:43 10° NW 03:11:43 53° WSW 03:13:32 45° SSW
ISS -0.3 03:09:42 10° W 03:09:43 10° W 03:09:43 10° W
H-2A R/B 3.7 03:27:32 26° W 03:27:41 26° W 03:31:48 10° NW
Cosmos 2227 Rocket 4.1 03:33:09 10° WSW 03:37:48 26° WNW 03:42:29 10° N
Cosmos 2369 Rocket 3.3 09:09:24 41° NNE 09:09:24 41° NNE 09:13:01 10° NNE
ADEOS II 3.7 09:04:40 10° NNE 09:07:07 28° NNE 09:07:07 28° NNE
NOSS 3-2 (C) 4.1 09:13:37 47° NNE 09:13:37 47° NNE 09:18:12 10° NNE
ATLAS 3B R/B 2.8 09:13:56 66° NE 09:13:56 66° NE 09:19:32 10° NNE
Atlas Centaur 2 3.5 09:23:14 38° SE 09:23:14 38° SE 09:28:27 10° ESE
Nadezhda 4 Rocket 4.2 09:26:12 63° N 09:26:12 63° N 09:31:14 10° N
Cosmos 2344 3.8 09:34:11 51° NW 09:34:21 51° NW 09:42:09 10° NNE
Lacrosse 5 rocket 2.9 09:38:04 35° ENE 09:38:04 35° ENE 09:41:37 10° ESE
BREEZE-M DEB (TANK) 3.8 09:40:14 43° N 09:40:59 47° NE 09:50:53 10° ESE
H-II Stage 2 4.4 09:43:14 16° SE 09:43:14 16° SE 09:45:24 10° ESE
CZ-3 R/B 4.4 08:43:34 10° W 09:42:30 65° SSW 09:55:34 10° ESE
H-2A R/B 4.3 09:42:22 10° NE 09:45:30 24° E 09:46:14 22° ESE
Cosmos 44 3.5 09:52:47 64° N 09:52:47 64° N 09:56:57 10° NNE
Cosmos 1943 Rocket 3.2 09:54:11 33° NNW 09:54:11 33° NNW 09:57:59 10° N
CENTAUR R/B 2.6 09:54:16 53° NW 09:54:20 53° NW 10:01:00 10° NNE
ADEOS 4.0 09:49:48 10° NNE 09:54:58 59° ESE 09:56:46 38° SSE
SeaSat 1 3.1 09:50:27 10° NE 09:55:16 51° ESE 09:56:26 42° SSE
ARIANE 5 R/B 4.2 09:51:30 10° N 09:53:40 22° NNW 09:53:40 22° NNW
Meteor 2-7 Rocket 4.5 09:59:35 74° W 09:59:36 74° W 10:05:09 10° N
Cosmos 2026 Rocket 4.0 10:00:34 28° S 10:04:07 80° E 10:10:30 10° N
ASTRO E2 4.5 10:07:47 23° SE 10:07:47 23° SE 10:10:07 10° ESE
SL-24 DEB 4.1 10:10:39 73° SSW 10:11:03 81° W 10:15:46 10° N
PSLV R/B 4.2 10:11:29 10° SSE 10:15:35 66° ENE 10:19:41 10° N
PSLV R/B 3.4 10:14:49 10° NNE 10:19:13 87° W 10:20:05 57° SSW
Cosmos 1733 Rocket 3.0 10:15:31 10° N 10:20:00 84° E 10:24:27 10° S
Aureole 2 Rocket 3.7 10:21:24 28° NE 10:21:24 28° NE 10:22:54 10° NNE
Cosmos 2195 Rocket 4.5 10:21:01 35° SSW 10:23:41 61° W 10:29:54 10° N
Meteor 1-5 Rocket 4.2 10:24:34 10° N 10:30:04 84° E 10:35:44 10° S
IDEFIX/ARIANE 42P 2.5 10:31:07 10° N 10:36:19 64° WNW 10:39:32 24° SSW
Cosmos 1500 3.2 10:35:06 10° N 10:38:51 77° E 10:42:36 10° S
Cosmos 1428 Rocket 4.5 10:33:54 15° SSW 10:39:04 63° W 10:45:19 10° N
Cosmos 773 Rocket 3.9 10:36:05 25° SSW 10:39:07 75° WNW 10:44:18 10° NNE
USA 81 4.0 10:36:19 18° SSW 10:40:12 62° W 10:45:27 10° N
MSX 3.8 10:35:32 10° NNE 10:41:19 90° WNW 10:47:03 10° SSW
SL-4 R/B 2.8 10:44:48 14° NW 10:47:31 43° NE 10:51:02 10° ESE
Iridium 4 Rocket 3.8 10:47:50 31° W 10:48:06 32° W 10:52:00 10° NNW
Sakura Rocket 4.4 10:46:38 23° SSW 10:48:18 29° S 10:53:06 10° ESE
ADEOS II 4.2 10:47:49 10° NW 10:48:03 10° NW 10:48:03 10° NW
CZ-4B R/B 4.3 10:45:59 10° NNE 10:49:34 54° E 10:53:07 10° S
Cosmos 1656 Rocket 4.4 10:47:49 28° W 10:49:45 35° WNW 10:54:55 10° N
USA 215 3.2 10:43:26 10° NE 10:50:00 86° NW 10:55:09 18° SW
Cosmos 2369 Rocket 3.9 10:51:13 15° WNW 10:52:00 15° NW 10:55:15 10° NNW
OAO 2 Rocket 3.9 10:52:18 23° SW 10:54:57 45° SSE 10:59:38 10° E
Cosmos 1315 Rocket 3.1 10:54:03 21° SW 10:56:32 49° WNW 11:00:34 10° N
Cosmos 1812 3.2 10:56:48 28° WSW 10:58:10 37° W 11:01:47 10° N
DELTA 2 R/B(2) 3.4 10:58:34 52° NE 10:58:34 52° NE 11:00:09 10° ENE
Cosmos 1703 Rocket 3.5 10:57:33 10° S 11:02:00 86° W 11:06:27 10° N
ATLAS 3B R/B 4.0 11:01:12 15° WNW 11:04:20 21° NW 11:09:10 10° N
Cosmos 2242 Rocket 4.1 11:03:09 14° SW 11:06:45 39° W 11:10:59 10° N
SJ-6F 4.5 11:02:37 10° N 11:06:46 61° WNW 11:10:53 10° SSW
Hubble Space Telescope 2.5 11:06:52 15° SW 11:08:30 19° S 11:11:28 10° SE
Cosmos 44 Rocket 3.4 11:05:49 14° SW 11:10:05 62° WNW 11:15:01 10° NNE
Meteor 1-27 Rocket 4.2 11:04:42 10° SSW 11:10:16 43° WNW 11:15:48 10° N
Atlas Centaur 2 3.5 11:05:52 18° WSW 11:10:26 37° SSW 11:17:43 10° SE
Cosmos 2266 Rocket 4.0 11:05:01 10° S 11:11:09 87° E 11:17:13 10° N
Cosmos 1538 Rocket 4.3 11:07:53 11° SW 11:12:39 47° WNW 11:17:38 10° N
BREEZE-M DEB (TANK) 4.2 11:07:15 11° WNW 11:15:31 34° NNW 11:18:46 10° NE
Lacrosse 5 rocket 2.5 11:13:51 15° WNW 11:16:33 26° WSW 11:20:18 10° S
CZ-2C R/B 2.5 11:13:46 10° N 11:18:36 59° WNW 11:23:33 10° SSW
H-2A R/B 3.7 11:18:01 10° NNW 11:20:52 20° WNW 11:22:48 14° WSW
Lacrosse 5 2.7 11:20:14 10° NNW 11:25:10 52° NE 11:30:05 10° ESE
PSLV R/B 3.8 11:22:21 10° N 11:26:22 83° WNW 11:30:17 10° SSW
Okean 1 3.5 11:22:38 10° S 11:26:35 74° E 11:30:32 10° N
Cosmos 2084 Rocket 3.4 11:23:16 10° NW 11:27:37 65° WSW 11:31:53 10° SSE
Meteor 1-11 Rocket 4.3 11:23:40 10° NNW 11:28:32 32° W 11:33:20 10° SSW
Meteor 1-31 Rocket 3.2 11:26:13 10° N 11:29:53 40° WNW 11:33:32 10° SW
Okean 1-7 3.3 11:26:00 10° SSW 11:30:15 49° W 11:34:32 10° N
Helios 1A Rocket 3.6 11:26:14 10° NNE 11:30:16 60° ESE 11:34:18 10° S
Meteor PRIRODA 3.7 11:28:42 10° N 11:32:21 59° WNW 11:35:58 10° SSW
SeaSat 1 3.9 11:28:48 10° N 11:32:24 21° NW 11:36:01 10° W
Cosmos 1666 2.7 11:30:00 10° NNW 11:33:41 55° W 11:37:22 10° S
Cosmos 1975 4.4 11:30:26 10° N 11:34:18 41° E 11:38:09 10° SSE
BREEZE-M DEB (TANK) 2.9 11:32:15 10° SW 11:36:40 55° SE 11:38:58 10° ENE
Cosmos 2292 Rocket 3.9 11:32:01 10° S 11:37:48 89° E 11:42:05 10° N
SJ-12 4.3 11:33:49 10° NNE 11:37:52 68° ESE 11:41:54 10° S
COSMO-SKYMED 1 2.9 11:34:06 10° SSE 11:38:25 72° ENE 11:42:45 10° N
EP 3 4.3 11:36:38 10° SSW 11:38:53 59° ESE 11:40:56 10° NE
Cosmos 1340 3.8 11:35:58 10° NW 11:38:59 23° W 11:41:59 10° SW
Cosmos 1536 4.0 11:38:56 10° NW 11:42:03 22° W 11:45:09 10° SW
Cosmos 1346 Rocket 4.1 11:41:52 10° NW 11:44:54 20° W 11:47:56 10° SW
Cosmos 2315 Rocket 4.1 11:38:58 10° N 11:45:12 89° W 11:51:26 10° S
Okean 2 Rocket 3.6 11:41:44 10° N 11:46:15 70° E 11:50:43 10° SSE
CENTAUR R/B 4.4 11:43:42 10° NW 11:46:53 14° NNW 11:50:18 10° N
